STARLINK-5218 (55636 NORAD) Tracking and Keplerian Element Data

This shows tracking and keplerian element data for the satellite.

Feedback or suggestion? Click here.




ElementValue
Catalog55636
NameSTARLINK-5218
Epoch Orbit130
Epoch Day62.91667824
Epoch Year2023
RAAN110.2039
Inclination70
Eccentricity0.0003473
Argument of Perigee268.3851
Mean Anonmoly324.0173
Mean Motion15.74883265
Decay Rate-0.00972592
L11 55636U 23021J 23062.91667824 -.00972592 00000+0 -73436-2 0 9999
L22 55636 70.0000 110.2039 0003473 268.3851 324.0173 15.74883265 1303



Live tracking and technical data element details for STARLINK-5218 (NORAD 55636). STARLINK-5218 can be tracked NOW for your location showing map with azimuth and elevation plus other details from your city location.







IsCatalogInMostPopularTable: catalog: 55636, numindb: 1
Update: records affected: 1



GetName: 55636 STARLINK-5218

Hit Count: updated at: Wed, 22 Mar 2023 16:05:14 GMT